Gloucester, Virginia, United States (23061)
Lat: 37.41N, Lon: 76.53W
Wx Zone: VAZ084
Local Info
Past Weather Observations for Today

NOTE: This archive is for the closest National Weather Service station to Gloucester. Information may differ from the station used for current weather conditions.

Click here for Long-term Archive

Time Weather Temperature Dewpoint Humidity Pressure Winds Precip Visibility
11:55
Mostly Cloudy
77°F / 25°C 73°F / 23°C 89% 30.12 in
(1020 mb)
SE 4.6 mph
(SE 7 kph)
0.07 in
(1.78 mm)
7SM
11:35
Overcast
75°F / 24°C 73°F / 23°C 94% 30.12 in
(1020 mb)
SSE 3.5 mph
(SSE 6 kph)
0.07 in
(1.78 mm)
4SM
11:15
Overcast
77°F / 25°C 73°F / 23°C 89% 30.15 in
(1021 mb)
SE 6.9 mph
(SE 11 kph)
- 5SM
10:55
Overcast
77°F / 25°C 72°F / 22°C 83% 30.15 in
(1021 mb)
SSE 6.9 mph
(SSE 11 kph)
0.07 in
(1.78 mm)
1 1/2SM
10:35
Mostly Cloudy
81°F / 27°C 70°F / 21°C 70% 30.15 in
(1021 mb)
SSE 4.6 mph
(SSE 7 kph)
- 10SM
10:15
Partly Cloudy
81°F / 27°C 70°F / 21°C 70% 30.15 in
(1021 mb)
E 3.5 mph
(E 6 kph)
- 10SM
09:55
Partly Cloudy
81°F / 27°C 70°F / 21°C 70% 30.15 in
(1021 mb)
E 3.5 mph
(E 6 kph)
- 10SM
09:35
Partly Cloudy
79°F / 26°C 72°F / 22°C 79% 30.15 in
(1021 mb)
SW 3.5 mph
(SW 6 kph)
- 10SM
09:15
Mostly Cloudy
77°F / 25°C 72°F / 22°C 83% 30.15 in
(1021 mb)
SSE 5.8 mph
(SSE 9 kph)
- 10SM
08:55
Overcast
75°F / 24°C 72°F / 22°C 89% 30.15 in
(1021 mb)
Calm - 10SM
08:35
Mostly Cloudy
75°F / 24°C 73°F / 23°C 94% 30.15 in
(1021 mb)
E 5.8 mph
(E 9 kph)
- 10SM
08:15
Overcast
73°F / 23°C 72°F / 22°C 94% 30.15 in
(1021 mb)
E 3.5 mph
(E 6 kph)
- 10SM
07:55
Overcast
72°F / 22°C 72°F / 22°C 100% 30.15 in
(1021 mb)
Calm - 10SM
07:35
Overcast
70°F / 21°C 70°F / 21°C 100% 30.15 in
(1021 mb)
Calm - 7SM
07:15
Overcast
70°F / 21°C 70°F / 21°C 100% 30.15 in
(1021 mb)
Calm - 5SM
06:55
Overcast
68°F / 20°C 68°F / 20°C 100% 30.15 in
(1021 mb)
Calm - 1/4SM
06:35
Overcast
68°F / 20°C 66°F / 19°C 94% 30.15 in
(1021 mb)
Calm - M1/4SM
06:15
Overcast
66°F / 19°C 64°F / 18°C 94% 30.15 in
(1021 mb)
Calm - M1/4SM
05:55
Partly Cloudy
63°F / 17°C 63°F / 17°C 100% 30.15 in
(1021 mb)
Calm - 2 1/2SM
05:35
Clear
63°F / 17°C 61°F / 16°C 94% 30.15 in
(1021 mb)
Calm - 3SM
05:15
Clear
61°F / 16°C 61°F / 16°C 100% 30.15 in
(1021 mb)
Calm - 7SM
04:55
Clear
61°F / 16°C 59°F / 15°C 94% 30.15 in
(1021 mb)
Calm - 5SM
04:35
Clear
63°F / 17°C 61°F / 16°C 94% 30.15 in
(1021 mb)
Calm - 10SM
04:15
Clear
61°F / 16°C 61°F / 16°C 100% 30.15 in
(1021 mb)
Calm - 10SM
03:55
Clear
61°F / 16°C 59°F / 15°C 94% 30.15 in
(1021 mb)
Calm - 10SM
03:35
Clear
64°F / 18°C 63°F / 17°C 94% 30.12 in
(1020 mb)
Calm - 10SM
03:15
Clear
64°F / 18°C 64°F / 18°C 100% 30.15 in
(1021 mb)
Calm - 10SM
02:55
Clear
61°F / 16°C 61°F / 16°C 100% 30.15 in
(1021 mb)
Calm - 10SM
02:35
Clear
64°F / 18°C 63°F / 17°C 94% 30.15 in
(1021 mb)
Calm - 10SM
02:15
Clear
64°F / 18°C 64°F / 18°C 100% 30.15 in
(1021 mb)
Calm - 10SM
01:55
Clear
63°F / 17°C 61°F / 16°C 94% 30.15 in
(1021 mb)
Calm - 10SM
01:35
Clear
64°F / 18°C 63°F / 17°C 94% 30.15 in
(1021 mb)
Calm - 10SM
01:15
Clear
66°F / 19°C 64°F / 18°C 94% 30.15 in
(1021 mb)
Calm - 10SM
00:55
Clear
64°F / 18°C 64°F / 18°C 100% 30.15 in
(1021 mb)
Calm - 10SM
00:35
Clear
64°F / 18°C 63°F / 17°C 94% 30.15 in
(1021 mb)
Calm - 10SM
00:15
Clear
64°F / 18°C 63°F / 17°C 94% 30.18 in
(1022 mb)
E 3.5 mph
(E 6 kph)
- 10SM
Time Weather Temperature Dewpoint Humidity Pressure Winds Precip Visibility


Weather for websites

WeatherForYou.com, LLC is not responsible for any damages or problems caused by this service. Current weather conditions are obtained from the closest station including government and personal stations which may have varying degrees of accuracy. Weather forecasts are derived from the NOAA NDFD. Like all things, this site belongs to Jesus Christ... He just trusts us to maintain it. If you have any questions or comments email webmaster@weatherforyou.com

Copyright © 2016, WeatherForYou.com LLC. All rights reserved.